Radiation Dose at Monitoring Post of Fukushima Daini Nuclear Power Station
Date,Time,MP-1(microSv/h),MP-2(microSv/h),MP-3(microSv/h),MP-4(microSv/h),MP-5(microSv/h),MP-6(microSv/h),MP-7(microSv/h),Wind Direction,Wind Velocity(m/s),Rain
2019/07/25,00:00,0.178,0.162,0.268,0.254,0.259,0.136,0.086,south-southwest,2.8,No
2019/07/25,00:10,0.181,0.162,0.269,0.253,0.263,0.136,0.085,south,2.3,No
2019/07/25,00:20,0.180,0.163,0.272,0.256,0.263,0.136,0.085,south,3.0,No
2019/07/25,00:30,0.179,0.162,0.269,0.255,0.262,0.137,0.085,south,3.2,No
2019/07/25,00:40,0.179,0.160,0.268,0.253,0.259,0.137,0.085,south,2.5,No
2019/07/25,00:50,0.181,0.162,0.272,0.256,0.265,0.136,0.085,south-southwest,2.8,No
2019/07/25,01:00,0.179,0.163,0.271,0.257,0.261,0.135,0.086,south-southwest,4.2,No
2019/07/25,01:10,0.179,0.161,0.269,0.254,0.260,0.135,0.087,south,4.0,No
2019/07/25,01:20,0.180,0.163,0.272,0.255,0.264,0.136,0.085,south,3.8,No
2019/07/25,01:30,0.181,0.164,0.270,0.257,0.263,0.136,0.085,south,3.2,No
2019/07/25,01:40,0.178,0.162,0.269,0.255,0.259,0.137,0.086,south,1.8,No
2019/07/25,01:50,0.180,0.163,0.272,0.254,0.265,0.136,0.086,south,3.4,No
2019/07/25,02:00,0.182,0.163,0.269,0.256,0.264,0.136,0.085,south,3.0,No
2019/07/25,02:10,0.178,0.162,0.269,0.256,0.258,0.137,0.086,south,2.8,No
2019/07/25,02:20,0.181,0.163,0.273,0.254,0.264,0.137,0.085,south,2.2,No
2019/07/25,02:30,0.182,0.162,0.270,0.257,0.265,0.136,0.086,south,2.7,No
2019/07/25,02:40,0.180,0.163,0.269,0.256,0.260,0.138,0.086,south-southwest,3.1,No
2019/07/25,02:50,0.180,0.163,0.271,0.254,0.263,0.136,0.086,south-southwest,2.6,No
2019/07/25,03:00,0.181,0.162,0.270,0.257,0.264,0.136,0.085,south-southwest,3.0,No
2019/07/25,03:10,0.180,0.163,0.270,0.257,0.261,0.136,0.087,south-southwest,2.5,No
2019/07/25,03:20,0.179,0.164,0.273,0.253,0.262,0.137,0.086,south-southwest,3.2,No
2019/07/25,03:30,0.181,0.162,0.270,0.256,0.263,0.137,0.085,south-southwest,3.2,No
2019/07/25,03:40,0.180,0.163,0.269,0.257,0.260,0.137,0.086,south-southwest,3.3,No
2019/07/25,03:50,0.179,0.164,0.273,0.254,0.262,0.137,0.086,south-southwest,3.0,No
2019/07/25,04:00,0.182,0.163,0.272,0.257,0.265,0.136,0.086,south-southwest,3.4,No
2019/07/25,04:10,0.180,0.164,0.269,0.257,0.261,0.137,0.087,south,3.3,No
2019/07/25,04:20,0.179,0.163,0.273,0.255,0.262,0.138,0.087,south,3.4,No
2019/07/25,04:30,0.182,0.164,0.272,0.257,0.264,0.138,0.087,south,3.0,No
2019/07/25,04:40,0.182,0.164,0.270,0.258,0.263,0.137,0.088,south,2.5,No
2019/07/25,04:50,0.180,0.164,0.273,0.256,0.261,0.137,0.088,south,3.0,No
2019/07/25,05:00,0.182,0.164,0.272,0.255,0.265,0.137,0.086,south,2.5,No
2019/07/25,05:10,0.182,0.165,0.272,0.259,0.263,0.137,0.088,south,3.8,No
2019/07/25,05:20,0.181,0.163,0.275,0.256,0.260,0.138,0.088,south-southwest,3.4,No
2019/07/25,05:30,0.182,0.163,0.272,0.256,0.264,0.137,0.086,south-southwest,3.1,No
2019/07/25,05:40,0.182,0.164,0.270,0.258,0.265,0.137,0.086,south-southwest,3.7,No
2019/07/25,05:50,0.182,0.165,0.274,0.256,0.262,0.139,0.088,south-southwest,2.2,No
2019/07/25,06:00,0.181,0.163,0.272,0.256,0.261,0.138,0.087,south-southwest,0.9,No
2019/07/25,06:10,0.183,0.165,0.272,0.259,0.265,0.136,0.086,-,CALM,No
2019/07/25,06:20,0.182,0.166,0.274,0.257,0.263,0.138,0.087,-,CALM,No
2019/07/25,06:30,0.181,0.163,0.274,0.255,0.261,0.138,0.088,northwest,1.7,No
2019/07/25,06:40,0.182,0.163,0.271,0.257,0.260,0.137,0.088,north-northwest,1.2,No
2019/07/25,06:50,0.183,0.162,0.271,0.260,0.267,0.137,0.087,north-northeast,0.8,No
2019/07/25,07:00,0.181,0.165,0.274,0.258,0.265,0.138,0.087,-,CALM,No
2019/07/25,07:10,0.181,0.164,0.272,0.256,0.263,0.138,0.087,-,CALM,No
2019/07/25,07:20,0.181,0.164,0.271,0.256,0.261,0.138,0.087,-,CALM,No
2019/07/25,07:30,0.183,0.164,0.270,0.257,0.260,0.137,0.087,west-southwest,0.9,No
2019/07/25,07:40,0.182,0.164,0.272,0.259,0.263,0.138,0.087,-,CALM,No
2019/07/25,07:50,0.182,0.166,0.274,0.257,0.267,0.139,0.087,-,CALM,No
2019/07/25,08:00,0.181,0.165,0.272,0.255,0.264,0.138,0.086,-,CALM,No
2019/07/25,08:10,0.184,0.164,0.269,0.255,0.263,0.138,0.087,west-northwest,0.9,No
2019/07/25,08:20,0.182,0.163,0.275,0.260,0.261,0.137,0.088,-,CALM,No
2019/07/25,08:30,0.181,0.164,0.274,0.258,0.261,0.138,0.088,northwest,0.9,No
2019/07/25,08:40,0.180,0.165,0.272,0.256,0.261,0.139,0.087,north,0.6,No
2019/07/25,08:50,0.180,0.165,0.271,0.255,0.261,0.138,0.086,north,0.7,No
2019/07/25,09:00,0.183,0.164,0.270,0.255,0.262,0.137,0.087,-,CALM,No
2019/07/25,09:10,0.184,0.164,0.270,0.256,0.263,0.138,0.087,east,0.8,No
2019/07/25,09:20,0.182,0.164,0.270,0.256,0.264,0.138,0.087,northeast,0.7,No
2019/07/25,09:30,0.182,0.164,0.273,0.256,0.263,0.138,0.086,east,0.6,No
2019/07/25,09:40,0.181,0.164,0.274,0.256,0.263,0.137,0.087,east,1.3,No
2019/07/25,09:50,0.181,0.163,0.274,0.256,0.264,0.137,0.087,east,1.3,No
2019/07/25,10:00,0.181,0.164,0.272,0.257,0.263,0.138,0.086,east-southeast,2.3,No
2019/07/25,10:10,0.181,0.164,0.272,0.258,0.263,0.138,0.086,southeast,2.8,No
2019/07/25,10:20,0.182,0.164,0.269,0.257,0.263,0.138,0.086,south-southeast,4.0,No
2019/07/25,10:30,0.181,0.164,0.270,0.257,0.263,0.137,0.085,south-southeast,4.6,No
2019/07/25,10:40,0.181,0.163,0.270,0.257,0.263,0.137,0.086,south-southeast,4.1,No
2019/07/25,10:50,0.181,0.162,0.271,0.257,0.263,0.137,0.086,south-southeast,5.2,No
2019/07/25,11:00,0.180,0.164,0.271,0.256,0.262,0.137,0.085,south,5.0,No
2019/07/25,11:10,0.181,0.164,0.271,0.256,0.263,0.137,0.087,south-southeast,4.3,No
2019/07/25,11:20,0.181,0.163,0.271,0.256,0.263,0.138,0.085,south-southeast,4.8,No
2019/07/25,11:30,0.181,0.164,0.270,0.255,0.263,0.137,0.086,south,5.5,No
2019/07/25,11:40,0.180,0.163,0.270,0.255,0.263,0.137,0.086,south-southeast,5.3,No
2019/07/25,11:50,0.181,0.163,0.271,0.256,0.263,0.136,0.086,south-southeast,5.9,No
2019/07/25,12:00,0.180,0.163,0.271,0.257,0.261,0.137,0.086,south-southeast,4.4,No
2019/07/25,12:10,0.180,0.163,0.271,0.257,0.262,0.137,0.085,south-southeast,4.3,No
2019/07/25,12:20,0.180,0.163,0.272,0.255,0.262,0.136,0.085,south-southeast,6.7,No
2019/07/25,12:30,0.180,0.164,0.271,0.256,0.262,0.137,0.085,south-southeast,6.7,No
2019/07/25,12:40,0.180,0.162,0.272,0.255,0.263,0.137,0.085,south-southeast,6.4,No
2019/07/25,12:50,0.180,0.163,0.272,0.255,0.264,0.137,0.086,south-southeast,6.2,No
2019/07/25,13:00,0.180,0.163,0.270,0.255,0.262,0.137,0.085,south-southeast,5.9,No
2019/07/25,13:10,0.180,0.163,0.271,0.257,0.263,0.137,0.086,south-southeast,6.0,No
2019/07/25,13:20,0.180,0.164,0.270,0.256,0.262,0.136,0.086,south-southeast,7.6,No
2019/07/25,13:30,0.180,0.163,0.270,0.257,0.261,0.136,0.085,south-southeast,7.0,No
2019/07/25,13:40,0.179,0.163,0.270,0.256,0.261,0.137,0.085,south-southeast,6.6,No
2019/07/25,13:50,0.179,0.162,0.270,0.255,0.262,0.137,0.085,south-southeast,6.3,No
2019/07/25,14:00,0.180,0.164,0.270,0.256,0.261,0.136,0.085,south-southeast,6.5,No
2019/07/25,14:10,0.180,0.162,0.269,0.255,0.260,0.136,0.085,south-southeast,5.1,Yes
2019/07/25,14:20,0.179,0.163,0.269,0.255,0.260,0.137,0.084,south-southeast,5.2,Yes
2019/07/25,14:30,0.179,0.164,0.274,0.260,0.260,0.138,0.086,south-southeast,4.6,Yes
2019/07/25,14:40,0.182,0.165,0.274,0.260,0.264,0.138,0.087,south,4.6,Yes
2019/07/25,14:50,0.184,0.165,0.274,0.259,0.266,0.138,0.088,south,3.2,Yes
2019/07/25,15:00,0.183,0.165,0.271,0.257,0.267,0.139,0.087,south,2.7,Yes
2019/07/25,15:10,0.181,0.165,0.274,0.259,0.264,0.141,0.089,south-southeast,3.6,Yes
2019/07/25,15:20,0.182,0.167,0.278,0.262,0.265,0.142,0.090,south-southeast,4.9,Yes
2019/07/25,15:30,0.182,0.168,0.277,0.261,0.263,0.141,0.091,south-southeast,3.6,No
2019/07/25,15:40,0.182,0.167,0.274,0.259,0.264,0.141,0.090,south-southeast,2.5,No
2019/07/25,15:50,0.182,0.166,0.272,0.258,0.264,0.140,0.088,south-southeast,3.1,No
2019/07/25,16:00,0.181,0.166,0.271,0.257,0.263,0.140,0.088,south-southeast,3.1,No
2019/07/25,16:10,0.181,0.164,0.270,0.260,0.264,0.139,0.088,south-southeast,2.4,No
2019/07/25,16:20,0.182,0.164,0.270,0.261,0.261,0.139,0.087,south-southeast,2.3,No
2019/07/25,16:30,0.183,0.163,0.274,0.258,0.263,0.137,0.088,south-southeast,3.4,No
2019/07/25,16:40,0.182,0.164,0.275,0.257,0.263,0.138,0.087,south-southeast,2.7,No
2019/07/25,16:50,0.181,0.165,0.273,0.255,0.262,0.138,0.086,south-southeast,2.7,No
2019/07/25,17:00,0.181,0.165,0.271,0.256,0.261,0.138,0.086,south-southeast,3.1,No
2019/07/25,17:10,0.179,0.163,0.270,0.260,0.262,0.138,0.086,south-southeast,3.0,No
2019/07/25,17:20,0.181,0.162,0.271,0.259,0.262,0.137,0.085,south-southeast,3.1,No
2019/07/25,17:30,0.182,0.163,0.274,0.257,0.262,0.137,0.086,south-southeast,3.9,No
2019/07/25,17:40,0.181,0.165,0.274,0.255,0.263,0.138,0.087,south-southeast,4.9,No
2019/07/25,17:50,0.180,0.165,0.271,0.256,0.267,0.138,0.085,south-southeast,4.8,No
2019/07/25,18:00,0.180,0.163,0.270,0.259,0.266,0.138,0.085,south-southeast,3.9,No
2019/07/25,18:10,0.180,0.163,0.273,0.258,0.262,0.137,0.086,south,3.8,No
2019/07/25,18:20,0.183,0.164,0.275,0.256,0.262,0.136,0.086,south,4.1,No
2019/07/25,18:30,0.181,0.165,0.272,0.256,0.263,0.137,0.086,south,4.1,No
2019/07/25,18:40,0.180,0.164,0.271,0.259,0.266,0.138,0.085,south,4.2,No
2019/07/25,18:50,0.179,0.162,0.274,0.258,0.265,0.137,0.086,south,4.8,No
2019/07/25,19:00,0.183,0.164,0.274,0.256,0.262,0.136,0.085,south-southeast,5.7,No
2019/07/25,19:10,0.180,0.164,0.272,0.257,0.263,0.137,0.085,south-southeast,5.5,No
2019/07/25,19:20,0.180,0.163,0.270,0.258,0.265,0.137,0.085,south,5.0,No
2019/07/25,19:30,0.180,0.163,0.275,0.257,0.263,0.137,0.086,south,4.2,No
2019/07/25,19:40,0.182,0.164,0.273,0.255,0.260,0.137,0.086,south,3.5,No
2019/07/25,19:50,0.180,0.164,0.270,0.258,0.265,0.138,0.085,south,2.6,No
2019/07/25,20:00,0.180,0.163,0.272,0.258,0.264,0.138,0.085,south,4.1,No
2019/07/25,20:10,0.180,0.164,0.274,0.255,0.261,0.136,0.085,south,4.0,No
2019/07/25,20:20,0.183,0.164,0.272,0.255,0.261,0.136,0.085,south,3.9,No
2019/07/25,20:30,0.182,0.163,0.270,0.259,0.266,0.137,0.085,south,3.9,No
2019/07/25,20:40,0.179,0.164,0.273,0.257,0.264,0.137,0.085,south,3.8,No
2019/07/25,20:50,0.180,0.163,0.273,0.255,0.262,0.136,0.085,south,3.2,No
2019/07/25,21:00,0.182,0.162,0.271,0.257,0.262,0.137,0.086,south,2.9,No
2019/07/25,21:10,0.180,0.163,0.272,0.260,0.265,0.137,0.085,south,2.1,No
2019/07/25,21:20,0.179,0.164,0.275,0.257,0.263,0.137,0.086,south,2.2,No
2019/07/25,21:30,0.182,0.163,0.273,0.255,0.261,0.137,0.086,south-southwest,2.3,No
2019/07/25,21:40,0.182,0.162,0.271,0.259,0.264,0.138,0.085,south-southwest,2.2,No
2019/07/25,21:50,0.180,0.164,0.273,0.260,0.265,0.137,0.086,south,2.3,No
2019/07/25,22:00,0.180,0.164,0.274,0.256,0.264,0.137,0.086,south,2.7,No
2019/07/25,22:10,0.183,0.163,0.271,0.256,0.261,0.138,0.086,south,3.5,No
2019/07/25,22:20,0.182,0.163,0.273,0.259,0.265,0.137,0.085,south-southeast,3.7,No
2019/07/25,22:30,0.179,0.165,0.274,0.258,0.264,0.137,0.087,south-southeast,4.0,No
2019/07/25,22:40,0.181,0.164,0.272,0.256,0.262,0.136,0.085,south-southeast,3.3,No
2019/07/25,22:50,0.182,0.163,0.270,0.259,0.262,0.139,0.084,south-southwest,2.7,No
2019/07/25,23:00,0.181,0.164,0.273,0.260,0.265,0.138,0.087,south-southwest,2.0,No
2019/07/25,23:10,0.180,0.164,0.274,0.257,0.264,0.138,0.087,south-southwest,1.9,No
2019/07/25,23:20,0.182,0.163,0.270,0.257,0.262,0.138,0.086,southwest,1.1,No
2019/07/25,23:30,0.182,0.165,0.272,0.259,0.264,0.138,0.086,west,0.9,No
2019/07/25,23:40,0.180,0.164,0.273,0.258,0.265,0.137,0.086,-,CALM,No
2019/07/25,23:50,0.180,0.163,0.272,0.257,0.262,0.137,0.086,-,CALM,No
